Flag for Canada Weather past 2 weeks in Rainy River, Ontario, Canada

52 °F

More clouds than sun.

Feels Like: 49 °F
Forecast: 39 / 50 °F
Wind: 9 mph from North

Location: Baudette International Airport

Current Time: Oct 8, 2015 at 1:37:08 PM

Latest Report: Oct 8, 2015 at 12:53 PM

Visibility: 10 mi

Pressure: 30.03 "Hg

Humidity: 77%

Dew point: 45 °F

Location of Rainy RiverLocation

Historic Weather in Rainy River — Graph


Rainy River temperature yesterday

Maximum temperature yesterday: 53 °F (at 1:53 PM)
Minimum temperature yesterday: 27 °F (at 6:53 AM)
Average temperature yesterday: 41 °F

Past Weeks' High & Low Weather Summary

High77 °F (Sep 26, 2:53 PM)100% (Sep 27, 8:53 PM)30.63 "Hg (Sep 27, 8:53 PM)
Low27 °F (Oct 7, 6:53 AM)28% (Sep 29, 3:53 PM)29.71 "Hg (Sep 27, 5:53 AM)
Average52 °F72%30.21 "Hg
* Reported Sep 23 12:53 PM — Oct 8 12:00 Noon, Rainy River, Weather by CustomWeather, © 2015

Note: Actual official high and low records may vary slightly from our data, if they occured in-between our weather recording intervals... More about our weather records


Rainy River weather history for previous 24 hours

Time TempWeatherWind HumidityBarometerVisibility
12:00 PM
Thu, Oct 8
49 °FMostly cloudy.9 mph84%29.99 "Hg10 mi
11:01 AM50 °FMore clouds than sun.13 mph80%29.97 "Hg10 mi
9:53 AM47 °FLow clouds.8 mph90%29.96 "Hg10 mi
8:53 AM46 °FLow clouds.8 mph93%29.94 "Hg8 mi
7:53 AM45 °FFog.7 mph93%29.91 "Hg4 mi
6:53 AM45 °FFog.7 mph93%29.90 "Hg4 mi
5:53 AM45 °FFog.9 mph93%29.88 "Hg5 mi
4:53 AM46 °FOvercast.9 mph89%29.86 "Hg8 mi
3:53 AM46 °FOvercast.10 mph89%29.88 "Hg10 mi
3:03 AM46 °FMostly cloudy.10 mph89%29.85 "Hg10 mi
1:53 AM46 °FMostly cloudy.15 mph89%29.88 "Hg10 mi
12:53 AM46 °FOvercast.13 mph86%29.91 "Hg10 mi
11:53 PM
Wed, Oct 7
46 °FOvercast.13 mph89%29.93 "Hg10 mi
10:53 PM45 °FMostly cloudy.12 mph90%29.96 "Hg10 mi
9:53 PM45 °FLight rain. Overcast.9 mph90%30.01 "Hg10 mi
8:53 PM45 °FLight rain. Mostly cloudy.7 mph90%30.03 "Hg10 mi
7:53 PM46 °FLight rain. Overcast.14 mph79%30.00 "Hg10 mi
6:53 PM47 °FRain. Mostly cloudy.10 mph74%30.09 "Hg5 mi
5:53 PM51 °FOvercast.5 mph56%30.11 "Hg10 mi
4:53 PM52 °FOvercast.3 mph49%30.12 "Hg10 mi
3:53 PM53 °FScattered clouds.6 mph45%30.14 "Hg10 mi
2:53 PM53 °FSunny.8 mph45%30.14 "Hg10 mi
1:53 PM53 °FSunny.5 mph45%30.21 "Hg10 mi
Weather by CustomWeather, © 2015

See weather overviewHow to use our weather pages